The Dalles, WA

9:35 PM PDT on August 17, 2019 (GMT -0700)
Columbia Gorge Regional-The Dalles

Weather History for KDLS - June, 2019

Change the Weather History Date:

Wednesday, June 5, 2019

  Actual Average Record
Temperature  
Mean Temperature 65 °F -  
Max Temperature 78 °F 80 °F 104 °F (2016)
Min Temperature 55 °F 53 °F 40 °F (1976)
Growing Degree Days 15 (Base 50)    
Moisture  
Dew Point 43 °F    
Average Humidity 47    
Maximum Humidity 62    
Minimum Humidity 31    
Precipitation  
Precipitation 0.00 in - - ()
Sea Level Pressure  
Sea Level Pressure 29.96 in    
Wind  
Wind Speed 8 mph (NW)    
Max Wind Speed 30 mph    
Max Gust Speed 38 mph    
Visibility 10 miles    
Events      
Averages and records for this station are not official NWS values.
T = Trace of Precipitation, MM = Missing Value Source: NWS Daily Summary

Daily Weather History Graph

Daily Weather History Graph

Search for Another Location

Airport or City:

Astronomy

Jun. 05, 2019 Rise Set
Actual Time 5:17 AM PDT 8:49 PM PDT
Civil Twilight 4:39 AM PDT 9:27 PM PDT
Nautical Twilight 3:50 AM PDT 10:16 PM PDT
Astronomical Twilight 2:45 AM PDT 11:22 PM PDT
Moon 7:27 AM PDT (6/5) 11:20 PM PDT (6/5)
Length of Visible Light 16h 47m
Length of Day
15h 32m
Waxing Crescent, 7% of the Moon is Illuminated
Jun 5
Waxing Crescent
Jun 9
First Quarter
Jun 17
Full
Jun 25
Last Quarter
Jul 2
New

Hourly Weather History & Observations

Time (PDT) Temp. Dew Point Humidity Pressure Visibility Wind Dir Wind Speed Gust Speed Precip Events Conditions
12:53 AM 63.0 °F 39.0 °F 41% 30.00 in 10.0 mi NW 6.9 mph - N/A   Clear
1:53 AM 60.1 °F 37.0 °F 42% 30.01 in 10.0 mi East 3.5 mph - N/A   Clear
2:53 AM 57.9 °F 37.0 °F 46% 30.01 in 10.0 mi Calm Calm - N/A   Clear
3:53 AM 57.0 °F 36.0 °F 45% 30.01 in 10.0 mi Variable 3.5 mph - N/A   Clear
4:53 AM 55.0 °F 37.9 °F 53% 30.00 in 10.0 mi Calm Calm - N/A   Clear
5:53 AM 55.0 °F 39.0 °F 55% 30.00 in 10.0 mi ESE 6.9 mph - N/A   Overcast
6:53 AM 57.0 °F 39.9 °F 53% 30.00 in 10.0 mi Calm Calm - N/A   Scattered Clouds
7:53 AM 63.0 °F 42.1 °F 46% 29.99 in 10.0 mi Calm Calm - N/A   Clear
8:53 AM 64.9 °F 43.0 °F 45% 29.99 in 10.0 mi Calm Calm - N/A   Clear
9:53 AM 70.0 °F 42.1 °F 36% 29.97 in 10.0 mi NW 5.8 mph - N/A   Clear
10:53 AM 72.0 °F 43.0 °F 35% 29.94 in 10.0 mi NW 11.5 mph - N/A   Clear
11:53 AM 75.9 °F 43.0 °F 31% 29.93 in 10.0 mi WNW 17.3 mph 20.7 mph N/A   Partly Cloudy
12:53 PM 75.9 °F 44.1 °F 32% 29.91 in 10.0 mi NW 17.3 mph 24.2 mph N/A   Overcast
1:53 PM 73.9 °F 46.9 °F 38% 29.91 in 10.0 mi WNW 20.7 mph 33.4 mph N/A   Partly Cloudy
2:53 PM 70.0 °F 48.9 °F 47% 29.91 in 10.0 mi NW 29.9 mph 38.0 mph N/A   Mostly Cloudy
3:53 PM 68.0 °F 48.9 °F 50% 29.92 in 10.0 mi NW 21.9 mph 38.0 mph N/A   Scattered Clouds
4:53 PM 66.0 °F 50.0 °F 56% 29.94 in 10.0 mi WNW 15.0 mph 26.5 mph N/A   Clear
5:53 PM 64.9 °F 48.0 °F 54% 29.95 in 10.0 mi NW 15.0 mph 26.5 mph N/A   Clear
6:53 PM 66.0 °F 46.0 °F 48% 29.94 in 10.0 mi WNW 23.0 mph 28.8 mph N/A   Clear
7:53 PM 64.0 °F 46.9 °F 54% 29.94 in 10.0 mi West 10.4 mph - N/A   Clear
8:53 PM 64.9 °F 45.0 °F 48% 29.94 in 10.0 mi West 11.5 mph - N/A   Clear
9:53 PM 63.0 °F 46.0 °F 54% 29.92 in 10.0 mi WNW 12.7 mph - N/A   Partly Cloudy
10:53 PM 62.1 °F 46.0 °F 56% 29.94 in 10.0 mi Calm Calm - N/A   Clear
11:53 PM 61.0 °F 48.0 °F 62% 29.94 in 10.0 mi NW 12.7 mph - N/A   Clear